{"data":{"norad_id":54175,"epoch":"2026-05-25T00:56:39.586848Z","epoch_age_seconds":71915,"freshness":"FRESH","line1":"1 54175U 22141U   26145.03934707 -.00000699  00000+0 -25857-4 0  9999","line2":"2 54175  53.2138  21.3839 0001221  98.9019 261.2112 15.08846088197385","mean_motion":15.08846088,"eccentricity":0.0001221,"inclination_deg":53.2138,"raan_deg":21.3839,"arg_perigee_deg":98.9019,"mean_anomaly_deg":261.2112,"bstar":-2.5857e-5,"rev_number":19738,"period_min":95.437169599501,"perigee_km":538.88010952282,"apogee_km":540.56945136961,"semimajor_km":6917.8617804462,"source":"CELESTRAK","updated_at":"2026-05-25T13:38:17.663121Z"}}